GFSGBSN_700_temp_102.txt.gz
Temp
1 1 1 1 1 1 1 1 1 1 1 1 1 1 1 1 1 1 1 1 1 1 1 1 1 1 2 3 4 3 4 4 4 5 5 5 6 6 6 6 5 6 6 6 7 7 7
1 1 1 1 1 1 1 1 1 1 1 1 1 0 0 0 1 0 1 0 0 1 1 1 1 1 1 4 3 3 3 4 3 4 4 4 5 4 4 4 4 5 5 5 5 6 6
0 0 0 0 0 1 1 1 1 0 -0 -0 -1 -1 -1 -1 -0 -0 0 0 0 -0 -0 0 0 1 1 5 2 2 2 3 3 3 3 3 3 3 3 3 4 4 4 4 5 5 6
-0 -0 0 0 0 0 0 0 0 -0 -1 -2 -2 -2 -2 -2 -1 -1 -1 -0 -0 -1 -1 -1 -0 -0 2 2 2 3 2 2 2 3 3 3 3 3 3 3 3 4 4 4 4 5 5
-0 -0 -0 -0 -0 -0 -0 -0 -1 -1 -2 -2 -2 -3 -3 -3 -3 -2 -2 -1 -1 -2 -1 -1 -1 -1 1 1 2 2 2 2 2 2 2 2 2 2 2 2 2 2 3 3 3 4 5
-1 -1 -1 -1 -1 -1 -1 -1 -2 -2 -3 -3 -3 -3 -3 -4 -4 -5 -4 -3 -2 -3 -2 -2 -2 -2 -0 1 1 1 1 2 3 2 1 1 0 1 1 0 1 2 2 2 3 4 4
-1 -1 -1 -1 -1 -2 -2 -2 -3 -3 -3 -4 -4 -4 -5 -7 -8 -10 -10 -8 -7 -6 -3 -2 -2 -1 -1 0 1 1 0 -0 1 1 1 1 0 1 1 2 2 2 2 2 2 3 3
-2 -2 -2 -1 -2 -2 -3 -3 -3 -3 -4 -4 -5 -6 -7 -8 -9 -10 -10 -10 -10 -9 -5 -4 -2 -2 -1 -1 -1 -0 -1 -1 -1 1 1 0 1 1 1 1 1 1 1 1 2 3 3
-3 -2 -2 -2 -2 -3 -4 -4 -4 -4 -5 -6 -6 -7 -8 -9 -9 -11 -10 -10 -11 -9 -9 -2 -2 -2 -1 -1 -0 1 -1 -1 -0 -0 0 1 1 2 1 1 1 1 1 1 2 3 3
-3 -3 -2 -3 -3 -4 -4 -4 -5 -5 -6 -6 -7 -7 -9 -10 -10 -11 -10 -10 -10 -9 -8 -5 -2 -1 -1 -0 -0 1 1 -0 -1 -0 0 -0 0 1 1 1 0 1 1 1 1 1 1
-3 -3 -3 -3 -4 -4 -5 -5 -5 -6 -7 -7 -7 -8 -9 -10 -11 -10 -10 -10 -9 -9 -8 -3 -3 -3 -2 -1 -2 0 1 0 -1 -1 -0 0 0 1 1 1 1 0 1 1 1 1 1
-3 -3 -3 -3 -4 -5 -5 -5 -6 -7 -7 -7 -8 -8 -9 -10 -11 -11 -10 -9 -10 -8 -8 -5 -5 -4 -3 -3 -3 -2 -1 -1 -1 -1 -1 -1 -0 0 1 1 1 0 0 1 1 1 -2
-3 -4 -4 -4 -4 -5 -5 -5 -6 -7 -7 -7 -8 -8 -10 -11 -11 -11 -11 -11 -10 -8 -6 -6 -6 -4 -4 -3 -3 -3 -2 -1 -1 -2 -2 -2 -1 -0 -0 0 -0 -0 0 -1 -1 -2 -1
-4 -4 -4 -4 -5 -5 -6 -6 -7 -7 -8 -8 -8 -8 -10 -11 -11 -11 -11 -11 -9 -8 -8 -7 -6 -5 -5 -4 -3 -2 -2 -2 -2 -1 -1 -1 -0 1 1 0 0 0 0 0 -0 -1 -0
-4 -4 -4 -5 -5 -6 -6 -6 -7 -7 -8 -8 -8 -9 -10 -11 -11 -11 -11 -10 -9 -9 -9 -7 -6 -6 -6 -4 -4 -3 -3 -3 -3 -2 -2 -1 -0 -0 0 1 0 0 0 1 1 1 -0
-5 -5 -5 -5 -5 -6 -6 -7 -7 -8 -8 -8 -8 -10 -10 -10 -11 -11 -11 -10 -9 -9 -10 -8 -7 -7 -7 -6 -4 -3 -4 -4 -4 -3 -2 -2 -1 0 0 1 0 0 1 0 -0 -1 -0
-5 -5 -5 -5 -6 -6 -7 -8 -8 -8 -9 -8 -9 -10 -10 -10 -11 -11 -11 -10 -10 -9 -9 -9 -8 -7 -7 -7 -6 -5 -5 -5 -4 -4 -3 -2 -2 -1 -0 -0 0 0 -1 0 0 1 -0
-5 -5 -5 -6 -6 -7 -7 -8 -8 -10 -10 -10 -11 -11 -11 -11 -11 -11 -10 -10 -10 -9 -9 -8 -8 -8 -8 -7 -6 -6 -6 -6 -5 -5 -4 -3 -3 -2 -1 -1 -0 -0 -0 -0 -0 -0 0
-5 -6 -6 -6 -7 -7 -8 -9 -9 -11 -11 -11 -12 -11 -12 -12 -11 -11 -10 -10 -10 -9 -9 -8 -8 -8 -8 -7 -7 -6 -6 -6 -6 -5 -5 -4 -4 -3 -2 -1 -1 -1 0 0 -0 0 1
-6 -6 -6 -6 -7 -7 -8 -9 -10 -11 -12 -12 -12 -12 -11 -11 -11 -11 -10 -10 -10 -9 -9 -9 -8 -8 -8 -8 -7 -7 -6 -6 -6 -6 -5 -5 -4 -4 -3 -2 -3 -1 -0 -1 -1 0 0
-6 -6 -6 -6 -7 -8 -9 -10 -11 -11 -11 -11 -11 -12 -12 -12 -11 -11 -11 -10 -10 -9 -9 -9 -9 -9 -8 -8 -8 -7 -6 -6 -6 -6 -5 -5 -5 -5 -4 -3 -3 -3 -1 -1 -2 -1 -1
-7 -7 -7 -7 -7 -8 -8 -10 -11 -11 -10 -10 -11 -11 -12 -12 -11 -11 -11 -10 -10 -10 -9 -9 -9 -8 -8 -8 -8 -8 -7 -7 -7 -5 -5 -5 -6 -5 -4 -3 -5 -4 -2 -2 -2 -2 -2
-7 -7 -7 -7 -7 -8 -8 -10 -10 -11 -11 -11 -11 -11 -11 -11 -11 -11 -11 -10 -10 -10 -10 -9 -9 -8 -8 -7 -7 -7 -7 -6 -6 -6 -6 -6 -6 -5 -4 -4 -3 -3 -2 -2 -2 -2 -2
-8 -7 -7 -7 -7 -8 -9 -9 -11 -11 -11 -11 -10 -11 -11 -10 -11 -11 -11 -10 -10 -10 -10 -9 -9 -8 -8 -7 -7 -7 -6 -6 -6 -6 -6 -6 -5 -5 -4 -3 -6 -3 -2 -2 -3 -3 -2
-8 -8 -8 -7 -8 -8 -9 -9 -10 -11 -11 -11 -11 -11 -11 -11 -10 -10 -10 -11 -11 -10 -9 -9 -8 -8 -8 -8 -7 -7 -6 -6 -5 -5 -5 -6 -6 -5 -5 -5 -4 -4 -3 -3 -3 -3 -3
-8 -8 -8 -8 -8 -8 -9 -9 -10 -11 -11 -11 -10 -11 -11 -11 -10 -10 -10 -10 -10 -10 -9 -8 -8 -8 -8 -8 -8 -7 -6 -6 -5 -5 -5 -5 -6 -6 -5 -5 -6 -4 -4 -3 -3 -3 -3
-9 -8 -8 -8 -8 -8 -9 -9 -10 -10 -10 -10 -10 -11 -10 -10 -10 -10 -10 -11 -10 -10 -10 -9 -9 -8 -8 -8 -8 -7 -7 -6 -5 -5 -5 -5 -6 -7 -6 -6 -4 -4 -4 -4 -3 -3 -4
-9 -9 -9 -8 -8 -9 -9 -9 -9 -11 -10 -10 -10 -10 -11 -11 -10 -10 -10 -10 -10 -10 -10 -9 -9 -8 -8 -8 -8 -7 -7 -6 -6 -6 -6 -6 -6 -6 -6 -6 -6 -4 -4 -4 -3 -3 -4
-9 -9 -9 -9 -8 -9 -9 -9 -9 -10 -10 -10 -10 -10 -11 -11 -10 -10 -10 -9 -10 -10 -10 -10 -9 -9 -9 -8 -8 -7 -7 -6 -6 -6 -6 -6 -6 -6 -5 -5 -5 -5 -4 -4 -4 -4 -4

GFSGBSN_700_temp_105.txt.gz
Temp
0 1 1 1 1 1 1 1 1 1 1 2 2 2 2 2 2 2 2 1 1 1 1 1 1 1 2 2 4 2 3 3 3 3 3 4 5 5 5 5 5 6 6 6 6 6 6
0 1 1 1 1 1 1 1 1 1 1 1 1 1 1 1 1 1 1 1 1 1 0 0 0 1 1 3 3 2 3 3 3 3 3 3 3 4 4 4 5 5 5 5 4 5 6
0 0 0 0 0 0 0 0 1 1 1 1 0 0 -0 0 -0 -0 -0 -0 -0 -0 -0 -0 -0 -0 1 4 1 2 2 2 2 2 2 2 1 2 2 3 3 4 4 4 4 4 5
0 0 0 0 0 0 0 0 0 -0 -0 -1 -1 -1 -1 -1 -1 -1 -1 -1 -1 -1 -1 -1 -1 -1 1 3 1 2 1 2 2 1 2 1 1 1 1 1 2 3 3 3 4 4 5
-0 -0 -0 -0 -0 -0 -0 -0 -0 -0 -1 -1 -2 -2 -2 -2 -2 -2 -2 -2 -2 -2 -2 -1 -1 -2 0 0 1 2 2 2 2 1 1 1 1 1 1 0 1 2 2 2 3 3 4
-1 -1 -1 -1 -1 -1 -1 -1 -1 -1 -2 -2 -2 -2 -2 -3 -3 -4 -4 -4 -5 -6 -6 -4 -2 -3 -1 -1 -0 0 0 1 1 1 1 0 0 0 0 -1 1 1 1 1 2 3 4
-1 -1 -1 -1 -1 -1 -1 -1 -1 -2 -3 -3 -3 -3 -3 -4 -4 -5 -5 -6 -7 -7 -8 -8 -8 -6 -3 -1 -1 0 0 -0 -0 0 1 1 -0 1 1 1 0 1 1 1 2 2 3
-2 -2 -2 -2 -2 -2 -2 -2 -2 -3 -3 -3 -4 -4 -4 -5 -5 -6 -7 -8 -10 -11 -11 -8 -9 -9 -4 -3 -1 -1 -1 -1 -1 -0 0 -1 1 1 0 0 1 1 1 1 1 2 2
-2 -2 -2 -2 -2 -2 -2 -2 -3 -3 -4 -4 -5 -5 -5 -5 -6 -6 -8 -8 -9 -11 -11 -7 -7 -6 -5 -4 -2 -1 -1 -2 -2 -1 -1 1 1 1 -0 -0 0 0 0 0 0 2 2
-3 -3 -3 -2 -2 -3 -3 -3 -3 -4 -4 -5 -5 -6 -6 -6 -6 -7 -8 -9 -10 -10 -11 -8 -7 -6 -4 -3 -3 -1 -2 -2 -2 -2 -2 -1 -0 1 0 -0 0 0 1 1 1 -0 1
-3 -3 -3 -3 -3 -3 -3 -3 -4 -4 -5 -5 -6 -6 -6 -7 -7 -8 -9 -10 -10 -10 -9 -7 -7 -6 -5 -4 -4 -1 -1 -1 -2 -1 -1 -1 -0 -0 -0 1 1 0 1 0 1 0 0
-4 -3 -3 -3 -3 -3 -3 -4 -4 -4 -5 -6 -6 -7 -7 -7 -7 -9 -10 -10 -9 -10 -8 -7 -7 -7 -6 -5 -4 -3 -2 -2 -2 -3 -2 -1 -0 -0 0 0 -0 0 -0 -0 -0 -0 0
-4 -4 -3 -3 -3 -4 -4 -4 -5 -5 -5 -6 -7 -7 -7 -7 -8 -9 -10 -10 -9 -9 -8 -8 -7 -6 -6 -5 -4 -4 -3 -4 -2 -3 -2 -2 -1 -1 -0 0 -1 -1 -0 0 -0 -0 1
-4 -4 -4 -4 -4 -4 -4 -5 -5 -5 -6 -6 -7 -7 -7 -8 -8 -8 -9 -9 -9 -9 -10 -8 -8 -7 -7 -5 -4 -4 -4 -4 -3 -2 -2 -3 -2 -1 -1 -0 0 0 -0 1 1 1 2
-4 -4 -4 -4 -4 -4 -5 -5 -5 -6 -6 -7 -7 -7 -8 -8 -8 -8 -9 -9 -9 -9 -9 -8 -7 -9 -8 -6 -5 -3 -3 -4 -4 -3 -2 -2 -1 -0 -0 -0 -1 -1 -1 1 1 -0 0
-5 -4 -4 -5 -5 -5 -5 -5 -6 -6 -7 -7 -7 -7 -8 -8 -9 -9 -9 -10 -10 -10 -9 -8 -8 -8 -8 -7 -6 -5 -5 -5 -4 -3 -3 -2 -1 -1 -1 -0 -1 -1 -0 -0 -0 0 0
-5 -5 -5 -5 -5 -5 -5 -6 -6 -7 -7 -7 -8 -7 -8 -9 -10 -10 -10 -11 -10 -9 -9 -9 -8 -8 -8 -7 -7 -6 -6 -6 -5 -4 -3 -2 -2 -1 -1 -0 -0 -1 -1 -0 0 0 2
-5 -5 -5 -5 -5 -6 -6 -6 -7 -8 -7 -8 -9 -8 -9 -9 -10 -10 -11 -11 -10 -9 -9 -9 -9 -9 -8 -8 -7 -6 -6 -6 -6 -5 -4 -3 -3 -2 -1 -1 -1 -1 -1 -0 -0 -0 -0
-6 -5 -6 -6 -6 -6 -6 -7 -7 -8 -8 -9 -10 -9 -10 -10 -10 -10 -10 -10 -10 -9 -9 -9 -9 -9 -8 -8 -7 -7 -6 -6 -6 -5 -5 -4 -4 -2 -2 -2 -2 -1 -1 -0 -0 -0 0
-6 -6 -6 -6 -6 -6 -6 -7 -8 -8 -9 -9 -10 -10 -11 -11 -11 -11 -10 -10 -10 -9 -9 -9 -9 -9 -8 -8 -8 -7 -7 -6 -6 -6 -6 -6 -5 -3 -2 -2 -2 -2 -1 -1 -1 -1 -0
-6 -7 -7 -7 -7 -7 -7 -8 -8 -8 -9 -10 -10 -11 -11 -11 -12 -12 -11 -10 -10 -10 -9 -9 -9 -9 -9 -8 -8 -8 -8 -7 -6 -6 -6 -6 -5 -5 -4 -3 -3 -2 -2 -2 -1 -1 -1
-7 -7 -7 -7 -7 -7 -7 -9 -9 -9 -10 -10 -10 -11 -11 -11 -11 -11 -11 -10 -10 -10 -9 -9 -9 -8 -9 -8 -8 -8 -8 -7 -7 -6 -6 -6 -6 -5 -5 -4 -4 -3 -2 -2 -2 -2 -2
-7 -7 -7 -7 -7 -7 -8 -9 -9 -10 -10 -10 -10 -10 -11 -11 -11 -11 -10 -10 -10 -10 -9 -9 -9 -8 -8 -8 -8 -7 -7 -7 -7 -7 -7 -6 -6 -6 -4 -4 -4 -3 -2 -2 -2 -2 -2
-8 -8 -8 -8 -8 -8 -8 -9 -9 -11 -10 -11 -10 -10 -11 -11 -11 -11 -11 -10 -10 -10 -9 -9 -9 -9 -8 -8 -7 -7 -6 -6 -6 -6 -7 -6 -6 -6 -5 -4 -4 -4 -3 -3 -3 -3 -4
-8 -8 -8 -8 -8 -8 -8 -9 -9 -11 -11 -11 -11 -11 -11 -11 -10 -10 -11 -10 -10 -10 -10 -9 -9 -9 -8 -8 -7 -6 -6 -5 -5 -6 -6 -6 -6 -6 -5 -5 -4 -3 -4 -4 -3 -3 -4
-9 -8 -8 -8 -8 -8 -8 -9 -9 -10 -11 -11 -11 -11 -11 -11 -10 -10 -10 -11 -10 -10 -10 -9 -9 -9 -8 -8 -8 -8 -7 -6 -6 -6 -5 -5 -6 -6 -6 -5 -4 -4 -4 -4 -4 -4 -4
-9 -9 -9 -9 -9 -8 -8 -9 -10 -10 -11 -11 -10 -11 -11 -10 -10 -10 -10 -10 -11 -10 -10 -9 -9 -9 -8 -8 -8 -8 -7 -7 -6 -6 -5 -6 -6 -6 -6 -6 -4 -4 -4 -4 -4 -4 -4
-10 -9 -9 -9 -9 -9 -9 -9 -10 -10 -11 -11 -11 -10 -11 -10 -10 -10 -10 -10 -10 -10 -10 -10 -9 -9 -8 -9 -8 -8 -7 -7 -6 -6 -6 -6 -6 -6 -7 -6 -6 -5 -4 -4 -4 -4 -4
-10 -10 -10 -9 -9 -9 -9 -9 -10 -10 -12 -11 -10 -10 -10 -10 -10 -10 -10 -10 -10 -9 -9 -10 -10 -10 -9 -9 -9 -8 -8 -7 -7 -6 -6 -6 -7 -7 -7 -6 -6 -5 -5 -4 -4 -5 -5

GFSGBSN_700_temp_111.txt.gz
Temp
2 2 1 1 1 1 1 2 2 2 2 2 3 3 3 2 2 2 2 3 3 2 2 2 2 3 3 3 4 3 3 3 3 3 4 3 3 2 3 4 5 5 6 6 6 6 7
1 1 1 1 1 1 1 1 1 1 2 2 2 2 2 2 2 2 2 2 2 2 2 1 1 1 2 3 3 3 2 2 3 3 3 3 1 2 3 4 5 6 6 6 6 6 6
-0 0 0 0 0 0 1 1 1 1 1 1 1 1 1 2 2 2 2 1 1 1 1 0 0 0 1 3 2 2 2 2 1 3 3 3 0 1 2 3 4 4 5 5 5 5 6
-1 -0 -0 -0 0 0 0 1 1 1 0 1 1 1 1 1 1 1 1 1 1 1 1 0 -1 -1 1 1 1 1 1 2 1 0 2 1 -1 0 1 2 3 3 4 5 6 5 5
-1 -1 -1 -0 -0 -0 0 0 0 0 0 0 1 1 0 1 1 1 0 0 1 0 -0 -1 -2 -2 0 -1 -2 -4 -3 1 -1 -0 0 1 -0 1 0 1 2 3 4 5 6 6 6
-1 -1 -1 -1 -1 -0 -0 -0 -0 -0 0 0 0 0 0 1 1 0 -0 -0 -1 -0 -1 -4 -5 -6 -4 -6 -6 -7 -4 -6 -4 -4 -3 -1 -1 -1 -0 2 3 4 5 5 7 8 7
-2 -2 -1 -1 -1 -1 -1 -0 -0 -0 -0 -0 -0 -0 0 -0 -1 -1 -1 -1 -2 -4 -5 -4 -5 -6 -5 -6 -5 -6 -7 -6 -4 -5 -3 -3 -2 -0 2 2 3 4 5 6 6 7 6
-2 -2 -2 -1 -1 -1 -1 -1 -1 -1 -0 -0 -1 -1 -1 -1 -2 -2 -3 -4 -4 -4 -2 -5 -6 -7 -7 -6 -7 -6 -7 -8 -5 -4 -3 -2 -1 2 2 3 2 3 4 3 5 5 4
-3 -2 -2 -2 -2 -1 -1 -1 -1 -1 -1 -1 -1 -1 -2 -2 -3 -3 -4 -4 -4 -5 -5 -4 -6 -5 -5 -6 -6 -6 -8 -8 -6 -4 -2 -1 0 1 2 2 3 3 3 2 4 3 2
-3 -3 -3 -3 -2 -2 -2 -2 -2 -1 -1 -1 -2 -2 -2 -3 -3 -4 -5 -5 -5 -5 -5 -4 -6 -6 -5 -6 -5 -5 -7 -7 -7 -5 -1 -0 1 2 2 2 2 3 2 2 1 0 0
-3 -3 -3 -3 -3 -2 -2 -2 -2 -2 -2 -2 -2 -3 -3 -4 -4 -5 -5 -5 -5 -5 -3 -4 -5 -6 -5 -7 -5 -6 -5 -6 -6 -5 -3 1 1 2 1 2 2 2 2 0 0 0 1
-4 -3 -3 -3 -3 -3 -3 -2 -2 -2 -2 -2 -2 -3 -4 -4 -4 -5 -5 -5 -5 -5 -2 -4 -5 -6 -5 -7 -6 -5 -4 -4 -4 -4 -3 1 1 1 1 2 1 1 0 0 1 1 3
-4 -3 -4 -3 -4 -3 -3 -3 -3 -3 -3 -2 -3 -4 -4 -5 -5 -5 -5 -5 -6 -4 -5 -5 -6 -6 -5 -6 -5 -4 -3 -4 -3 -2 -3 -1 -2 1 1 1 1 -0 -1 -0 -1 1 3
-4 -5 -4 -4 -3 -4 -3 -3 -3 -3 -3 -3 -3 -4 -5 -5 -5 -5 -5 -6 -6 -5 -5 -7 -6 -6 -6 -7 -4 -5 -3 -2 -3 -1 -0 1 0 -0 0 1 0 0 1 1 1 2 3
-5 -4 -4 -4 -4 -4 -4 -3 -3 -3 -3 -3 -4 -4 -5 -5 -5 -5 -6 -6 -5 -7 -7 -7 -5 -5 -5 -6 -7 -6 -4 -4 -2 -2 -1 1 1 1 1 1 1 1 1 2 2 3 4
-5 -5 -5 -5 -4 -4 -4 -4 -4 -3 -4 -4 -4 -5 -6 -5 -5 -6 -7 -8 -7 -8 -8 -7 -6 -6 -6 -6 -6 -7 -5 -6 -5 -4 -4 -1 1 1 1 1 1 1 2 2 2 3 4
-5 -5 -5 -5 -5 -4 -4 -4 -4 -4 -4 -4 -5 -8 -6 -6 -6 -8 -8 -7 -8 -8 -8 -7 -7 -6 -6 -6 -6 -6 -6 -6 -5 -5 -4 -3 -1 1 1 -0 1 1 2 2 3 3 4
-6 -6 -5 -6 -5 -5 -5 -5 -4 -5 -5 -5 -6 -8 -6 -6 -9 -8 -8 -9 -8 -8 -8 -7 -7 -7 -6 -6 -6 -6 -6 -7 -6 -5 -4 -4 -2 0 1 1 2 2 2 2 3 4 4
-6 -6 -6 -6 -5 -5 -5 -5 -5 -5 -5 -6 -8 -8 -7 -6 -9 -7 -8 -8 -9 -8 -8 -8 -7 -7 -7 -6 -6 -5 -6 -6 -6 -5 -4 -3 -2 -3 -2 0 1 1 1 1 2 2 2
-7 -6 -6 -6 -6 -6 -6 -5 -5 -6 -6 -6 -7 -8 -9 -9 -8 -8 -8 -8 -8 -8 -8 -8 -7 -7 -7 -7 -6 -6 -5 -6 -6 -5 -5 -4 -4 -4 -2 -3 -0 1 2 2 2 2 3
-7 -7 -7 -7 -6 -6 -6 -6 -6 -6 -7 -7 -7 -8 -8 -10 -9 -10 -9 -9 -8 -8 -8 -7 -7 -7 -7 -7 -6 -6 -5 -6 -5 -6 -6 -5 -4 -3 -3 -3 -1 -2 -1 1 2 2 2
-7 -7 -7 -6 -6 -7 -6 -6 -6 -7 -7 -8 -8 -9 -10 -9 -9 -10 -9 -8 -8 -8 -8 -8 -8 -8 -8 -7 -6 -6 -7 -6 -6 -5 -6 -6 -4 -3 -2 -1 -1 -0 0 1 1 2 2
-7 -7 -7 -7 -7 -7 -7 -7 -7 -7 -8 -8 -8 -9 -9 -10 -9 -9 -9 -9 -9 -9 -9 -9 -9 -9 -8 -7 -8 -7 -7 -7 -7 -6 -6 -6 -5 -4 -1 -1 -1 -0 -0 -0 1 1 1
-8 -7 -7 -7 -7 -7 -7 -7 -7 -7 -8 -9 -9 -9 -9 -10 -9 -9 -9 -9 -9 -9 -9 -9 -9 -9 -8 -7 -6 -6 -6 -6 -6 -6 -6 -6 -6 -4 -2 -2 -1 -1 -2 -1 0 -1 -2
-8 -8 -8 -8 -8 -7 -7 -8 -7 -8 -8 -9 -9 -10 -10 -10 -10 -9 -9 -10 -10 -9 -9 -9 -9 -9 -7 -7 -7 -6 -5 -5 -5 -5 -5 -6 -5 -4 -3 -1 -1 -1 -3 -3 -2 -3 -3
-10 -9 -8 -8 -8 -8 -8 -8 -8 -8 -8 -9 -9 -10 -10 -10 -9 -10 -10 -10 -9 -9 -9 -9 -9 -8 -8 -8 -8 -6 -4 -4 -5 -5 -6 -5 -5 -5 -4 -2 -1 -5 -4 -3 -3 -4 -3
-10 -10 -9 -8 -9 -8 -9 -8 -9 -9 -9 -10 -10 -10 -10 -10 -10 -10 -10 -10 -9 -9 -9 -9 -9 -9 -9 -8 -7 -5 -4 -4 -4 -5 -6 -6 -6 -5 -3 -3 -3 -6 -5 -4 -4 -5 -5
-11 -10 -10 -9 -9 -9 -9 -9 -9 -9 -9 -9 -10 -10 -10 -10 -10 -10 -9 -10 -10 -10 -9 -9 -9 -8 -9 -8 -7 -6 -6 -5 -5 -5 -5 -5 -5 -5 -4 -4 -3 -5 -5 -5 -6 -5 -5
-12 -12 -10 -10 -9 -9 -9 -9 -9 -9 -9 -10 -11 -10 -10 -10 -9 -9 -9 -9 -10 -10 -10 -10 -9 -9 -9 -9 -8 -8 -7 -7 -6 -5 -6 -6 -7 -7 -6 -7 -6 -6 -5 -6 -6 -6 -6

GFSGBSN_700_temp_114.txt.gz
Temp
2 2 2 2 2 2 2 2 2 2 2 2 2 2 2 3 3 3 3 3 3 3 3 3 3 3 4 4 5 5 4 4 3 3 4 4 3 2 3 3 4 5 6 6 7 7 7
2 2 1 1 1 1 1 1 1 2 2 2 2 2 2 2 2 2 2 2 3 3 3 2 2 2 2 4 3 3 4 4 3 3 3 4 4 2 2 3 4 5 6 6 7 7 7
1 0 -0 -0 0 0 0 1 1 1 1 1 2 2 2 2 2 2 2 2 2 2 2 2 2 2 3 3 3 4 3 2 3 2 2 2 3 1 2 3 3 4 5 6 7 7 7
0 -2 -3 -1 -1 -0 0 0 0 1 1 1 1 1 1 2 2 2 2 2 2 2 2 2 2 2 3 3 2 -1 -2 -1 0 1 1 -2 -1 0 1 2 3 4 4 5 6 7 7
0 -1 -4 -4 -1 -1 -0 -0 0 0 1 1 1 1 1 1 1 2 2 2 2 2 2 1 2 2 2 0 -2 -4 -4 -5 -4 -1 -2 -3 -2 -1 0 1 2 3 4 5 5 6 7
-0 -1 -4 -2 -1 -1 -1 -1 -0 0 0 0 0 1 1 1 1 1 1 1 1 1 2 1 1 -2 -3 -4 -3 -3 -4 -4 -5 -5 -5 -5 -3 -2 -1 1 2 3 4 5 6 7 7
-2 -5 -3 -2 -1 -1 -1 -1 -1 -0 -0 -0 0 0 0 0 1 1 1 1 1 1 -0 -2 -3 -3 -4 -4 -3 -2 -4 -6 -5 -5 -5 -4 -4 -3 -2 0 1 3 5 6 6 6 7
-7 -6 -4 -2 -2 -2 -1 -1 -1 -1 -0 -0 -1 -0 0 0 -0 -0 -0 -0 -1 -2 -1 -3 -4 -4 -5 -6 -4 -1 -4 -5 -5 -6 -5 -6 -5 -3 -2 -0 1 2 4 5 7 7 5
-7 -5 -4 -3 -2 -2 -2 -1 -1 -1 -1 -1 -1 -1 -1 -0 -1 -1 -1 -2 -3 -3 -3 -4 -5 -5 -4 -5 -5 -4 -5 -5 -5 -6 -7 -7 -4 -2 -2 -0 2 2 3 5 6 6 1
-6 -4 -4 -3 -3 -2 -2 -2 -2 -2 -1 -1 -1 -1 -1 -1 -1 -2 -3 -3 -4 -4 -4 -3 -4 -4 -4 -5 -4 -4 -3 -5 -7 -7 -6 -5 -3 -2 -1 -1 2 3 4 4 5 4 -1
-7 -5 -4 -3 -3 -3 -3 -2 -2 -2 -2 -2 -1 -1 -2 -2 -2 -3 -4 -4 -4 -4 -3 -3 -3 -4 -4 -4 -5 -3 -4 -6 -6 -6 -6 -5 -3 -1 0 0 2 3 4 4 4 2 -0
-5 -5 -4 -4 -2 -3 -2 -3 -2 -2 -2 -2 -2 -2 -2 -2 -3 -3 -4 -4 -4 -5 -2 -3 -4 -4 -4 -4 -5 -5 -4 -5 -4 -5 -4 -4 -2 -1 1 2 2 3 3 2 2 1 1
-5 -5 -4 -3 -4 -3 -3 -3 -3 -2 -2 -2 -2 -2 -2 -3 -4 -4 -5 -4 -6 -4 -3 -3 -5 -4 -4 -4 -4 -5 -5 -3 -3 -3 -4 -3 -1 -0 1 2 3 2 2 1 -0 1 1
-6 -5 -4 -4 -3 -4 -3 -3 -3 -3 -3 -2 -2 -2 -3 -4 -4 -4 -5 -7 -5 -3 -4 -5 -5 -4 -4 -4 -4 -4 -3 -2 -1 -2 -2 -1 -3 -0 1 2 3 1 1 1 1 1 2
-6 -5 -5 -4 -4 -4 -4 -4 -3 -3 -3 -3 -2 -3 -3 -4 -5 -5 -5 -6 -4 -6 -6 -6 -4 -4 -4 -4 -5 -6 -6 -5 -4 -4 -4 -3 -0 -1 1 2 2 1 1 1 2 1 3
-6 -5 -5 -5 -4 -4 -4 -4 -4 -4 -3 -3 -3 -3 -5 -5 -5 -5 -8 -6 -5 -6 -6 -6 -5 -5 -4 -4 -5 -5 -5 -6 -6 -4 -4 -3 -2 -0 -1 1 1 1 1 1 1 2 2
-6 -6 -6 -5 -5 -4 -4 -4 -4 -4 -4 -3 -4 -5 -6 -6 -6 -7 -7 -6 -6 -7 -7 -6 -6 -5 -5 -5 -5 -4 -5 -5 -5 -4 -3 -4 -3 -0 1 0 0 1 2 2 2 3 3
-7 -6 -6 -5 -5 -5 -5 -5 -4 -4 -4 -4 -5 -8 -6 -6 -7 -7 -6 -7 -7 -7 -6 -6 -6 -6 -5 -5 -5 -4 -4 -5 -5 -5 -5 -4 -4 -3 1 2 2 2 2 2 2 3 4
-7 -6 -6 -6 -6 -5 -5 -5 -5 -5 -5 -5 -6 -8 -6 -6 -7 -6 -6 -6 -6 -7 -6 -6 -6 -6 -5 -5 -6 -6 -4 -5 -5 -5 -5 -4 -3 -3 -1 1 2 2 2 2 2 3 2
-7 -7 -6 -6 -6 -6 -6 -5 -5 -5 -5 -5 -5 -7 -8 -8 -8 -7 -7 -6 -6 -7 -7 -6 -6 -6 -6 -6 -5 -6 -5 -5 -5 -5 -5 -5 -4 -4 -3 -3 -3 1 3 3 2 2 2
-8 -7 -7 -6 -6 -6 -6 -6 -6 -5 -5 -6 -6 -7 -8 -8 -8 -8 -8 -7 -6 -6 -6 -6 -6 -6 -6 -6 -6 -5 -5 -5 -5 -6 -5 -5 -5 -4 -3 -3 -3 -2 0 1 2 2 3
-9 -8 -7 -7 -7 -6 -6 -6 -7 -6 -6 -7 -7 -8 -9 -8 -8 -8 -8 -7 -7 -7 -7 -7 -7 -7 -7 -7 -7 -6 -6 -6 -6 -6 -6 -5 -5 -4 -2 -1 -1 -2 -1 -0 1 1 1
-9 -8 -7 -7 -7 -7 -7 -6 -7 -6 -6 -7 -7 -8 -8 -8 -8 -8 -7 -8 -8 -8 -8 -7 -8 -8 -7 -7 -8 -7 -7 -7 -6 -6 -5 -6 -5 -4 -1 -1 -0 0 1 1 1 2 1
-9 -8 -8 -7 -8 -7 -7 -7 -7 -7 -7 -7 -7 -8 -8 -9 -8 -7 -8 -8 -8 -8 -8 -8 -8 -8 -8 -7 -5 -5 -5 -4 -4 -5 -5 -5 -5 -4 -3 -1 -1 -2 -1 -0 -0 -1 -1
-9 -8 -8 -8 -8 -7 -7 -7 -7 -7 -8 -8 -8 -9 -9 -10 -9 -8 -8 -8 -8 -8 -8 -8 -8 -8 -7 -6 -7 -6 -4 -4 -4 -4 -4 -5 -5 -4 -3 -2 -1 -3 -3 -3 -3 -3 -3
-10 -8 -8 -8 -8 -8 -8 -8 -8 -7 -8 -8 -8 -9 -10 -9 -9 -9 -9 -9 -8 -8 -8 -8 -8 -8 -8 -8 -7 -6 -5 -4 -4 -5 -5 -5 -5 -4 -4 -3 -2 -5 -5 -4 -3 -4 -4
-10 -10 -9 -9 -8 -8 -8 -8 -8 -8 -8 -9 -9 -9 -9 -9 -9 -10 -9 -9 -9 -9 -9 -8 -8 -8 -8 -8 -7 -5 -5 -4 -4 -5 -5 -5 -5 -4 -3 -3 -5 -5 -4 -3 -4 -6 -6
-11 -11 -10 -10 -9 -9 -8 -9 -8 -9 -9 -9 -10 -9 -9 -9 -9 -8 -8 -9 -9 -9 -9 -8 -8 -8 -8 -8 -7 -7 -6 -6 -5 -5 -5 -6 -6 -6 -5 -4 -4 -6 -5 -5 -7 -6 -6
-12 -11 -11 -10 -10 -9 -9 -9 -9 -9 -9 -9 -10 -10 -10 -10 -9 -9 -8 -8 -9 -9 -9 -9 -9 -9 -9 -9 -8 -8 -7 -7 -6 -5 -6 -6 -6 -6 -7 -7 -7 -7 -7 -7 -6 -6 -6